Weather History for PAVD - August, 2013

Change the Weather History Date:

Wednesday, August 14, 2013

  Actual Average Record
Temperature  
Mean Temperature 54 °F -  
Max Temperature 62 °F 60 °F 71 °F (2004)
Min Temperature 46 °F 46 °F 37 °F (1966)
Degree Days  
Heating Degree Days 11    
Growing Degree Days 4 (Base 50)    
Moisture  
Dew Point 48 °F    
Average Humidity 78    
Maximum Humidity 87    
Minimum Humidity 68    
Precipitation  
Precipitation 0.00 in - - ()
Sea Level Pressure  
Sea Level Pressure 29.94 in    
Wind  
Wind Speed 4 mph (South)    
Max Wind Speed 8 mph    
Max Gust Speed -    
Visibility 9 miles    
Events      
Averages and records for this station are not official NWS values.
T = Trace of Precipitation, MM = Missing Value Source: NWS Daily Summary

Daily Weather History Graph

Daily Weather History Graph

Search for Another Location

Airport or City:

Trip Planner

Search our weather history database for the weather conditions in past years. The results will help you decide how hot, cold, wet, or windy it might be!

Date:

Astronomy

Aug. 14, 2013 Rise Set
Actual Time 5:52 AM AKDT 9:44 PM AKDT
Civil Twilight 4:57 AM AKDT 10:39 PM AKDT
Nautical Twilight 3:30 AM AKDT 12:03 AM AKDT
Astronomical Twilight Sun does not rise Sun does not rise
Moon 4:33 PM AKDT (8/14) 11:43 PM AKDT (8/14)
Length of Visible Light 17h 41m
Length of Day
15h 52m
First Quarter, 54% of the Moon is Illuminated
Aug 14
First Quarter
Aug 20
Full
Aug 28
Last Quarter
Sep 5
New
Sep 12
First Quarter

Hourly Weather History & Observations

Time (AKDT) Temp. Windchill Dew Point Humidity Pressure Visibility Wind Dir Wind Speed Gust Speed Precip Events Conditions
12:36 AM 51.8 °F - 44.6 °F 76% 30.04 in 10.0 mi East 4.6 mph - N/A   Overcast
1:16 AM 50.0 °F - 44.6 °F 82% 30.04 in 10.0 mi East 5.8 mph - N/A   Mostly Cloudy
1:36 AM 51.8 °F - 44.6 °F 76% 30.04 in 10.0 mi East 3.5 mph - N/A   Mostly Cloudy
1:56 AM 50.0 °F - 44.6 °F 82% 30.04 in 10.0 mi East 5.8 mph - N/A   Mostly Cloudy
2:16 AM 48.2 °F - 44.6 °F 87% 30.04 in 10.0 mi East 3.5 mph - N/A   Mostly Cloudy
2:36 AM 48.2 °F - 44.6 °F 87% 30.03 in 10.0 mi East 4.6 mph - N/A   Mostly Cloudy
2:56 AM 48.2 °F - 42.8 °F 82% 30.03 in 10.0 mi East 4.6 mph - N/A   Scattered Clouds
3:16 AM 50.0 °F - 44.6 °F 82% 30.03 in 10.0 mi East 3.5 mph - N/A   Overcast
3:56 AM 50.0 °F - 46.4 °F 87% 30.03 in 10.0 mi Calm Calm - N/A   Overcast
4:16 AM 51.8 °F - 46.4 °F 82% 30.02 in 10.0 mi Calm Calm - N/A   Overcast
4:36 AM 51.8 °F - 46.4 °F 82% 30.02 in 10.0 mi Calm Calm - N/A   Overcast
4:56 AM 51.8 °F - 46.4 °F 82% 30.02 in 10.0 mi Calm Calm - N/A   Overcast
5:36 AM 50.0 °F - 44.6 °F 82% 30.02 in 10.0 mi East 3.5 mph - N/A   Overcast
5:56 AM 51.8 °F - 44.6 °F 76% 30.02 in 10.0 mi Calm Calm - N/A   Overcast
6:16 AM 48.2 °F - 44.6 °F 87% 30.02 in 4.0 mi East 3.5 mph - N/A   Overcast
6:36 AM 50.0 °F - 44.6 °F 82% 30.01 in 4.0 mi East 3.5 mph - N/A   Overcast
6:56 AM 48.2 °F - 44.6 °F 87% 30.01 in 5.0 mi East 4.6 mph - N/A   Overcast
7:16 AM 50.0 °F - 44.6 °F 82% 30.01 in 5.0 mi Calm Calm - N/A   Overcast
7:36 AM 50.0 °F - 44.6 °F 82% 30.01 in 5.0 mi Calm Calm - N/A   Overcast
7:56 AM 51.8 °F - 46.4 °F 82% 30.01 in 4.0 mi Calm Calm - N/A   Overcast
8:16 AM 51.8 °F - 46.4 °F 82% 30.00 in 4.0 mi Calm Calm - N/A   Overcast
8:56 AM 53.6 °F - 46.4 °F 77% 29.99 in 5.0 mi Calm Calm - N/A   Mostly Cloudy
9:16 AM 53.6 °F - 48.2 °F 82% 29.99 in 5.0 mi Calm Calm - N/A   Mostly Cloudy
9:36 AM 53.6 °F - 48.2 °F 82% 29.99 in 5.0 mi Calm Calm - N/A   Mostly Cloudy
9:56 AM 55.4 °F - 48.2 °F 77% 29.98 in 10.0 mi Calm Calm - N/A   Mostly Cloudy
10:36 AM 57.2 °F - 50.0 °F 77% 29.97 in 10.0 mi WSW 4.6 mph - N/A   Mostly Cloudy
10:56 AM 57.2 °F - 51.8 °F 82% 29.97 in 10.0 mi WSW 4.6 mph - N/A   Scattered Clouds
12:36 PM 57.2 °F - 51.8 °F 82% 29.96 in 10.0 mi SW 4.6 mph - N/A   Scattered Clouds
1:16 PM 60.8 °F - 51.8 °F 72% 29.95 in 10.0 mi WSW 4.6 mph - N/A   Scattered Clouds
1:36 PM 60.8 °F - 51.8 °F 72% 29.95 in 10.0 mi WSW 6.9 mph - N/A   Scattered Clouds
1:56 PM 60.8 °F - 51.8 °F 72% 29.94 in 10.0 mi WSW 8.1 mph - N/A   Partly Cloudy
2:16 PM 60.8 °F - 51.8 °F 72% 29.93 in 10.0 mi SW 6.9 mph - N/A   Partly Cloudy
2:36 PM 60.8 °F - 51.8 °F 72% 29.93 in 10.0 mi SW 6.9 mph - N/A   Partly Cloudy
2:56 PM 60.8 °F - 51.8 °F 72% 29.92 in 10.0 mi WSW 8.1 mph - N/A   Partly Cloudy
3:16 PM 60.8 °F - 53.6 °F 77% 29.91 in 10.0 mi WSW 5.8 mph - N/A   Partly Cloudy
3:36 PM 60.8 °F - 51.8 °F 72% 29.91 in 10.0 mi SW 6.9 mph - N/A   Partly Cloudy
3:56 PM 60.8 °F - 51.8 °F 72% 29.90 in 10.0 mi WSW 5.8 mph - N/A   Scattered Clouds
4:16 PM 60.8 °F - 51.8 °F 72% 29.89 in 10.0 mi SW 5.8 mph - N/A   Scattered Clouds
4:36 PM 60.8 °F - 51.8 °F 72% 29.89 in 10.0 mi SW 4.6 mph - N/A   Scattered Clouds
4:56 PM 62.6 °F - 53.6 °F 72% 29.88 in 10.0 mi SW 4.6 mph - N/A   Scattered Clouds
5:16 PM 62.6 °F - 53.6 °F 72% 29.88 in 10.0 mi West 5.8 mph - N/A   Scattered Clouds
5:36 PM 62.6 °F - 53.6 °F 72% 29.87 in 10.0 mi WSW 4.6 mph - N/A   Scattered Clouds
5:56 PM 62.6 °F - 53.6 °F 72% 29.87 in 10.0 mi SSW 5.8 mph - N/A   Scattered Clouds
6:16 PM 62.6 °F - 51.8 °F 68% 29.86 in 10.0 mi West 8.1 mph - N/A   Scattered Clouds
6:36 PM 62.6 °F - 51.8 °F 68% 29.86 in 10.0 mi West 5.8 mph - N/A   Scattered Clouds
6:56 PM 62.6 °F - 51.8 °F 68% 29.86 in 10.0 mi South 4.6 mph - N/A   Scattered Clouds
7:16 PM 62.6 °F - 53.6 °F 72% 29.86 in 10.0 mi South 4.6 mph - N/A   Scattered Clouds
7:36 PM 60.8 °F - 51.8 °F 72% 29.85 in 10.0 mi South 3.5 mph - N/A   Scattered Clouds
7:56 PM 60.8 °F - 51.8 °F 72% 29.86 in 10.0 mi South 3.5 mph - N/A   Scattered Clouds
8:16 PM 57.2 °F - 51.8 °F 82% 29.85 in 10.0 mi Calm Calm - N/A   Scattered Clouds
8:36 PM 57.2 °F - 51.8 °F 82% 29.85 in 10.0 mi Calm Calm - N/A   Scattered Clouds
8:56 PM 55.4 °F - 48.2 °F 77% 29.85 in 10.0 mi East 4.6 mph - N/A   Scattered Clouds
9:16 PM 53.6 °F - 46.4 °F 77% 29.86 in 10.0 mi East 4.6 mph - N/A   Scattered Clouds
9:36 PM 51.8 °F - 44.6 °F 76% 29.86 in 10.0 mi ENE 5.8 mph - N/A   Scattered Clouds
10:36 PM 48.2 °F - 42.8 °F 82% 29.85 in 10.0 mi East 5.8 mph - N/A   Clear
10:56 PM 48.2 °F - 42.8 °F 82% 29.85 in 10.0 mi East 5.8 mph - N/A   Clear
11:36 PM 46.4 °F 42.4 °F 42.8 °F 87% 29.84 in 10.0 mi East 8.1 mph - N/A   Clear
11:56 PM 48.2 °F - 44.6 °F 87% 29.84 in 10.0 mi East 4.6 mph - N/A   Clear